EW9931 Weather Reports


Display with metric or nautical units.
time (UTC)temp
F
wind
direction
speed
MPH
gust
MPH
rain 1hr
in
rain 24hr
in
rain mn
in
humidity
%
barometer
mb
20260906064540 58 140 0.0 0.0 0.00 0.00 0.00 72 1004.1
20260906063040 59 140 0.0 0.0 0.00 0.00 0.00 71 1004.2
20260906061545 59 138 0.0 0.0 0.00 0.00 0.00 71 1004.2
20260906060042 59 138 0.0 0.0 0.00 0.00 0.00 71 1005.2
20260906054542 59 138 0.0 0.0 0.00 0.00 0.00 69 1004.7
20260906053036 59 131 0.0 0.0 0.00 0.00 0.00 69 1005.2
20260906051537 59 131 0.0 0.0 0.00 0.00 0.00 65 1005.8
20260906050034 59 131 0.0 0.0 0.00 0.00 0.00 61 1006.4
20260906044532 58 131 0.0 0.0 0.00 0.00 0.00 51 1006.6
20260906043034 59 152 0.0 0.0 0.00 0.00 0.00 48 1006.8
20260906041531 59 172 0.0 0.0 0.00 0.00 0.00 48 1006.1
20260906040029 59 150 0.0 0.0 0.00 0.00 0.00 47 1006.5
20260906034549 59 150 0.0 0.0 0.00 0.00 0.00 43 1006.3
20260906033032 59 145 0.0 0.0 0.00 0.00 0.00 42 1006.2
20260906031530 60 136 0.0 0.0 0.00 0.00 0.00 41 1006.3
20260906030026 60 147 0.0 0.0 0.00 0.00 0.00 42 1006.6
20260906024526 60 133 1.0 0.0 0.00 0.00 0.00 42 1006.6
20260906023029 60 185 0.0 0.0 0.00 0.00 0.00 39 1006.2
20260906021528 61 193 0.0 0.0 0.00 0.00 0.00 38 1006.3
20260906020023 61 193 0.0 0.0 0.00 0.00 0.00 38 1006.6
20260906014522 61 195 0.0 0.0 0.00 0.00 0.00 37 1006.0
20260906013022 62 193 0.0 0.0 0.00 0.00 0.00 36 1006.1
20260906011521 62 138 0.0 0.0 0.00 0.00 0.00 34 1006.2
20260906010020 63 161 0.0 0.0 0.00 0.00 0.00 33 1006.1
20260906004520 63 175 0.0 0.0 0.00 0.00 0.00 33 1006.2
20260906003020 63 202 1.0 0.0 0.00 0.00 0.00 32 1006.0
20260906001538 64 209 0.0 0.0 0.00 0.00 0.00 31 1005.9
20260906000019 65 137 1.0 0.0 0.00 0.00 0.00 30 1005.6
20260905234517 66 128 3.0 0.0 0.00 0.00 0.00 28 1004.9
20260905233020 66 195 3.0 0.0 0.00 0.00 0.00 28 1004.8
20260905231522 67 144 3.0 0.0 0.00 0.00 0.00 27 1004.9
20260905230017 69 282 1.0 0.0 0.00 0.00 0.00 26 1004.8
20260905224514 67 168 3.0 0.0 0.00 0.00 0.00 27 1005.1
20260905223025 67 145 3.0 0.0 0.00 0.00 0.00 27 1005.1
20260905221511 68 206 2.0 0.0 0.00 0.00 0.00 28 1005.2
20260905220011 67 167 2.0 0.0 0.00 0.00 0.00 28 1005.4
20260905214513 67 202 3.0 0.0 0.00 0.00 0.00 30 1005.4
20260905213010 68 216 2.0 0.0 0.00 0.00 0.00 28 1005.5
20260905211506 67 144 3.0 0.0 0.00 0.00 0.00 28 1005.9
20260905210003 66 144 3.0 0.0 0.00 0.00 0.00 31 1005.9
20260905204501 65 140 4.0 0.0 0.00 0.00 0.00 34 1005.8
20260905203001 66 224 4.0 0.0 0.00 0.00 0.00 31 1006.1
20260905201556 65 222 4.0 0.0 0.00 0.00 0.00 34 1006.0
20260905200115 65 203 4.0 0.0 0.00 0.00 0.00 33 1005.8
20260905194549 65 200 4.0 0.0 0.00 0.00 0.00 35 1006.0
20260905193045 65 213 3.0 0.0 0.00 0.00 0.00 34 1005.8
20260905191542 65 192 3.0 0.0 0.00 0.00 0.00 35 1006.3
20260905190038 64 182 3.0 0.0 0.00 0.00 0.00 35 1006.1
20260905184543 63 171 3.0 0.0 0.00 0.00 0.00 34 1006.6
20260905183038 62 136 3.0 0.0 0.00 0.00 0.00 33 1006.8
20260905181526 62 213 3.0 0.0 0.00 0.00 0.00 27 1007.3
20260905180021 62 217 3.0 0.0 0.00 0.00 0.00 24 1007.3
20260905174521 62 136 3.0 0.0 0.00 0.00 0.00 19 1007.1
20260905173019 61 192 2.0 0.0 0.00 0.00 0.00 15 1007.6
20260905171515 60 196 3.0 0.0 0.00 0.00 0.00 13 1007.5
20260905170013 60 116 3.0 0.0 0.00 0.00 0.00 12 1007.5
20260905164513 60 130 2.0 0.0 0.00 0.00 0.00 14 1007.1
20260905163009 59 157 3.0 0.0 0.00 0.00 0.00 13 1007.0
20260905161507 59 117 3.0 0.0 0.00 0.00 0.00 12 1007.0
20260905160006 59 127 2.0 0.0 0.00 0.00 0.00 13 1006.9
20260905154503 58 191 2.0 0.0 0.00 0.00 0.00 15 1006.8
20260905153001 58 195 2.0 0.0 0.00 0.00 0.00 14 1006.9
20260905151624 57 106 2.0 0.0 0.00 0.00 0.00 15 1006.8
20260905150058 57 128 2.0 0.0 0.00 0.00 0.00 14 1006.7
20260905144556 56 195 1.0 0.0 0.00 0.00 0.00 16 1006.8
20260905143055 55 133 1.0 0.0 0.00 0.00 0.00 17 1006.6
20260905141553 55 200 1.0 0.0 0.00 0.00 0.00 18 1006.5
20260905140053 55 179 1.0 0.0 0.00 0.00 0.00 18 1006.5
20260905134553 55 157 2.0 0.0 0.00 0.00 0.00 17 1006.3
20260905133050 55 191 1.0 0.0 0.00 0.00 0.00 16 1006.0
20260905131558 55 198 2.0 0.0 0.00 0.00 0.00 18 1005.8
20260905130048 55 124 1.0 0.0 0.00 0.00 0.00 20 1005.3
20260905124547 54 154 0.0 0.0 0.00 0.00 0.00 21 1005.2
20260905123104 55 148 1.0 0.0 0.00 0.00 0.00 21 1005.1
20260905121544 55 179 1.0 0.0 0.00 0.00 0.00 21 1005.2
20260905120043 54 138 0.0 0.0 0.00 0.00 0.00 22 1004.6
20260905114545 54 152 0.0 0.0 0.00 0.00 0.00 23 1004.4
20260905113041 53 160 0.0 0.0 0.00 0.00 0.00 25 1004.4
20260905111541 54 143 0.0 0.0 0.00 0.00 0.00 25 1004.6
20260905110039 54 172 0.0 0.0 0.00 0.00 0.00 26 1004.1
20260905104539 54 126 0.0 0.0 0.00 0.00 0.00 26 1004.2
20260905103048 53 172 0.0 0.0 0.00 0.00 0.00 26 1004.1
20260905101537 54 138 1.0 0.0 0.00 0.00 0.00 26 1004.1
20260905100049 54 162 0.0 0.0 0.00 0.00 0.00 27 1004.1
20260905094535 54 150 1.0 0.0 0.00 0.00 0.00 27 1004.1
20260905093035 54 184 1.0 0.0 0.00 0.00 0.00 27 1004.1
20260905091541 54 185 0.0 0.0 0.00 0.00 0.00 28 1004.0
20260905090032 53 133 1.0 0.0 0.00 0.00 0.00 28 1003.6
20260905084530 53 200 1.0 0.0 0.00 0.00 0.00 29 1003.7
20260905083031 54 161 1.0 0.0 0.00 0.00 0.00 29 1003.7
20260905081527 54 140 1.0 0.0 0.00 0.00 0.00 28 1003.9
20260905080034 54 124 1.0 0.0 0.00 0.00 0.00 29 1003.9
20260905074528 54 161 1.0 0.0 0.00 0.00 0.00 28 1003.9
20260905073027 54 126 1.0 0.0 0.00 0.00 0.00 28 1004.0
20260905071525 55 148 1.0 0.0 0.00 0.00 0.00 28 1003.9
20260905070031 55 168 0.0 0.0 0.00 0.00 0.00 28 1004.4